WESTFORD NEEDLES, 43288

Orbit data source: Space-Track

WESTFORD NEEDLES, 43288 is space debris in LEO originally from a launch on Thu, 09 May 1963 UTC launched from the Air Force Western Test Range (AFWTR). Debris objects in space refer to the collection of defunct objects orbiting the Earth. Examples of debris include non-operational satellites, rocket bodies, and fragments generated from explosions, collisions, or faulty payload assembly.

Loading next visibility...
Identifier
43288, 1963-014FL
Orbit
LEO
Country
Flag of USUS
Related business
Manufacturer
Unknown
Mission
Spacecraft
Bus & Motor
Unknown
Mass
Unknown
Launch date (UTC)
1963-05-09 (62 years ago)
Launch vehicle
Unknown
Launch site
Air Force Western Test Range (AFWTR)
Object type
Payload
Rocket body
Debris
Shape & HBR
Unknown shape, 0.2 m
Radar Cross Section
Medium (>0.1 m² and <1 m²)

Expand to show TLE details & history
Last TLE update: 1 month ago

TLE from 1 month ago
0 WESTFORD NEEDLES
1 43288U 63014FL  25260.02799726  .00000007  00000-0  59266-3 0  9994
2 43288  87.0696 125.6393 0825173 150.6048 214.3938  8.67274939344266
Epoch: 2025-09-17T00:40Z
TLE epoch observation values (Epoch: 2025-09-17T00:40:18.963Z)
Latitude
-0°
Longitude
119.35045°
Altitude
4,332.08 km
Speed
5.884 km/s
True Right ascension
08h 22m 33s
True Declination
0° 00' 00"
Sunlit
Object was in daylight at epoch
Visualization orbit readout
Latitude
Unknown
Longitude
Unknown
Altitude
Unknown
Speed
Unknown
Apparent Right ascension
Unknown
Apparent Declination
Unknown
Sunlit
N/A
Visualization observer readout
Local Sidereal Time
10:52:04
Azimuth
Unknown
Elevation
Unknown
Doppler factor
Unknown
Orbital elements
Apogee altitude
4,452.068 km
Perigee altitude
2,800.955 km
Semi-major axis
10,004.649 km
Eccentricity
0.08252
Inclination
87.0696°
RAAN
125.6393°
Arg. of periapsis
150.6048°
True anomaly
209.47852°
Mean anomaly
214.3938°
Eccentric anomaly
211.8957°
Mean motion
2.1689 °/min
Orbital period
165.98 mins
BSTAR
0.00059266

Documentation

Showing up to 5 results
|